EUTELSAT 65 WEST A (41382 NORAD) Tracking and Keplerian Element Data

This shows tracking and keplerian element data for the satellite.

Feedback or suggestion? Click here.




ElementValue
Catalog41382
NameEUTELSAT 65 WEST A
Epoch Orbit3253
Epoch Day34.52781378
Epoch Year2025
RAAN316.4845
Inclination0.0648
Eccentricity0.000227
Argument of Perigee357.8755
Mean Anonmoly304.3876
Mean Motion1.00271629
Decay Rate-2.71E-06
L11 41382U 16014A 25034.52781378 -.00000271 00000+0 00000+0 0 9994
L22 41382 0.0648 316.4845 0002270 357.8755 304.3876 1.00271629 32532



Live tracking and technical data element details for EUTELSAT 65 WEST A (NORAD 41382). EUTELSAT 65 WEST A can be tracked NOW for your location showing map with azimuth and elevation plus other details from your city location.







IsCatalogInMostPopularTable: catalog: 41382, numindb: 538
Update: records affected: 1



GetName: 41382 EUTELSAT 65 WEST A

Hit Count: updated at: Sat, 24 May 2025 16:47:59 GMT